SL-14 DEB, 47078

Orbit data source: Space-Track

SL-14 DEB, 47078 is space debris in LEO originally from a launch on Thu, 15 Aug 1991 UTC launched from the Plesetsk Missile And Space Complex (PKMTR). Debris objects in space refer to the collection of defunct objects orbiting the Earth. Examples of debris include non-operational satellites, rocket bodies, and fragments generated from explosions, collisions, or faulty payload assembly.

Loading next visibility...
Identifier
47078, 1991-056DC
Orbit
LEO
Last TLE update
8 hours ago
Origin
Manufacturer
Unknown
Mission
Spacecraft
Bus & Motor
Unknown
Mass
Unknown
Launch date (UTC)
1991-08-15 (34 years ago)
Launch vehicle
Unknown
Launch site
Plesetsk Missile And Space Complex (PKMTR)
Object type
Payload
Rocket body
Debris
Shape & HBR
Unknown
Radar Cross Section
Small (<0.1 m²)

Expand to show TLE details & history

TLE from 8 hours ago
0 SL-14 DEB
1 47078U 91056DC  25192.16492178  .00000538  00000-0  11270-2 0  9993
2 47078  82.5564 354.8305 0042828  81.7414 278.8569 13.29460909227217
Epoch: 2025-07-11T03:57Z
TLE epoch observation values (Epoch: 2025-07-11T03:57:29.241Z)
Latitude
-0.00003°
Longitude
6.13789°
Altitude
1,146.793 km
Speed
7.282 km/s
True Right ascension
23h 39m 19s
True Declination
0° 00' 00"
Sunlit
Object was in daylight at epoch
Visualization orbit readout
Latitude
51.68009°
Longitude
176.43489°
Altitude
1,134.994 km
Speed
7.301 km/s
Apparent Right ascension
11h 34m 42s
Apparent Declination
10° 46' 16"
Sunlit
Object is in daylight
Visualization observer readout
Local Sidereal Time
00:07:15
Azimuth
10.275° NNE
Elevation
-38.753°
Doppler factor
1
Orbital elements
Apogee altitude
1,178.249 km
Perigee altitude
1,113.8 km
Semi-major axis
7,524.161 km
Eccentricity
0.00428
Inclination
82.5564°
RAAN
354.8305°
Arg. of periapsis
81.7414°
True anomaly
Unknown
Mean anomaly
278.8569°
Eccentric anomaly
Unknown
Mean motion
3.32549 °/min
Orbital period
108.25 mins
BSTAR
0.001127
Loading maneuver chart data...
Loading SW <> Apogee altitude chart data...
Loading historical data...
Loading historical data...
Loading historical data...
Loading historical data...
Loading historical data...
Loading historical data...
Loading historical data...

SL-14 DEB Visibility forecast

Observer location: undefined°, undefined°

Span
Click to sort rows by Start time (UTC) header in descending order
Start Az.
Max El. time (UTC)
Max El. Az.
Max El.
End time (UTC)
End Az.
9 mins2025-07-11 13:08:09.646Z247.353° WSW2025-07-11 13:12:09.646Z285.799° WNW20.269°2025-07-11 13:17:09.646Z335.952° NNW
4 mins2025-07-11 20:51:09.646Z50.271° ENE2025-07-11 20:52:09.646Z59.134° ENE12.014°2025-07-11 20:55:09.646Z85.125° E
12 mins2025-07-11 22:37:09.646Z356.098° N2025-07-11 22:43:09.646Z109.74° ESE44.269°2025-07-11 22:49:09.646Z168.345° S
6 mins2025-07-12 00:29:09.646Z299.263° NW2025-07-12 00:31:09.646Z279.717° WNW15.769°2025-07-12 00:35:09.646Z244.151° WSW
10 mins2025-07-12 10:47:09.646Z148.533° SSE2025-07-12 10:52:09.646Z80.072° E33.269°2025-07-12 10:57:09.646Z25.351° NE
|